Location: Biltmore Gardens
(41.6070°N, 83.4666°W)
Time: 23:40:48
(UTC+00:00)

A-11 Canister half - Pass Details

Date: 18 April 2021
Orbit: 1526 x 1682 km, 47.3° (Epoch: 14 May)

Event Time Altitude Azimuth Distance (km) Brightness Sun altitude
Rises 00:24:08 0° 277° (W) 4,918 14.1 -2.1°
Reaches altitude 10° 00:27:21 10° 281° (W) 3,939 13.2 -2.7°
Maximum altitude 00:37:27 64° 2° (N) 1,834 9.6 -4.5°
Drops below altitude 10° 00:47:28 10° 83° (E) 3,917 10.6 -6.2°
Enters shadow 00:49:38 - 86° (E) 4,574 10.9 -6.6°
